Regional Weather Roundup
Issued by NWS

Home | Current Version | Previous Version | Graphics & Text | Print | Product List | Glossary On
Versions: 1 2 3 4 5 6 7 8 9 10 11 12 13 14 15 16 17 18 19 20 21 22 23 24 25 26 27 28 29 30 31 32 33 34 35 36 37 38 39 40 41 42 43 44 45 46 47 48 49 50
000
ASUS43 KFSD 152310
RWRSD

WEATHER ROUNDUP FOR SOUTH DAKOTA
NATIONAL WEATHER SERVICE SIOUX FALLS SD
500 PM CST FRI DEC 15 2017

NOTE: "FAIR" INDICATES FEW OR NO CLOUDS BELOW 12,000 FEET WITH NO
SIGNIFICANT WEATHER AND/OR OBSTRUCTIONS TO VISIBILITY.


SDZ001>005-009-010-012>017-160000-
NORTHWEST AND NORTH CENTRAL SOUTH DAKOTA

CITY           SKY/WX    TMP DP  RH WIND       PRES   REMARKS
BUFFALO          N/A     44  21  40 W15       29.57F
FAITH            N/A     45  22  40 W15       29.62S
MOBRIDGE       CLOUDY    44  28  53 CALM      29.56F
$$

SDZ012>016-024>037-041>051-057-063-072>074-160000-
SOUTHWEST AND SOUTH CENTRAL SOUTH DAKOTA

CITY           SKY/WX    TMP DP  RH WIND       PRES   REMARKS
RAPID CTY ARPT CLOUDY    48  17  29 E3        29.68F
PIERRE         CLOUDY    48  27  44 W13       29.62F
CUSTER         CLOUDY    45  11  25 W9        29.74F
ELLSWORTH AFB  CLOUDY    50  15  24 CALM      29.67F
PHILIP         CLOUDY    45  25  45 SW8       29.65F
PINE RIDGE     CLOUDY    49  19  30 W3        29.73F
SPEARFISH      FAIR      54  12  19 W17G24    29.68F
WINNER         FAIR      45  30  55 SW12      29.69F
$$

SDZ004>011-016>023-039-040-160000-
NORTHEAST SOUTH DAKOTA

CITY           SKY/WX    TMP DP  RH WIND       PRES   REMARKS
ABERDEEN       CLOUDY    38  26  62 S10       29.60F
WATERTOWN      CLOUDY    35  29  78 S8        29.63F WCI  29
BROOKINGS      CLOUDY    37  26  64 S8        29.67F
SISSETON         N/A     35  30  82 SE8       29.62F WCI  29
$$

SDZ017-020-022-023-036>040-048>070-160000-
SOUTHEAST SOUTH DAKOTA

CITY           SKY/WX    TMP DP  RH WIND       PRES   REMARKS
SIOUX FALLS    CLOUDY    37  26  64 S9        29.70F
HURON          CLOUDY    40  27  59 S8        29.65S
CHAMBERLAIN    CLOUDY    46  33  62 SW6       29.66F
MITCHELL       CLOUDY    43  28  55 SW7       29.68S
YANKTON        CLOUDY    45  25  45 SW13      29.71F
$$

ABBREVIATIONS USED IN REMARKS
   TC - TEMPERATURE IN CELSIUS
  WCI - WIND CHILL INDEX
   HX - HEAT INDEX
  VSB - VISIBILITY





USA.gov is the U.S. government's official web portal to all federal, state and local government web resources and services.